| time (UTC) | temp F | wind direction | speed MPH | gust MPH | rain 1hr in | rain 24hr in | rain mn in | humidity % | barometer mb |
| 20260903124605 | 60 | 202 | 0.0 | 0.0 | 0.08 | 0.39 | 0.35 | 96 | 1007.4 |
| 20260903123051 | 60 | 202 | 0.0 | 0.0 | 0.09 | 0.38 | 0.34 | 96 | 1007.3 |
| 20260903121549 | 60 | 202 | 0.0 | 0.0 | 0.06 | 0.34 | 0.30 | 96 | 1007.4 |
| 20260903120058 | 60 | 198 | 0.0 | 0.0 | 0.06 | 0.33 | 0.28 | 96 | 1007.6 |
| 20260903114546 | 60 | 192 | 1.0 | 4.0 | 0.05 | 0.31 | 0.27 | 96 | 1007.6 |
| 20260903113115 | 60 | 177 | 0.0 | 0.0 | 0.05 | 0.28 | 0.25 | 96 | 1007.8 |
| 20260903111545 | 59 | 184 | 0.0 | 0.0 | 0.06 | 0.28 | 0.24 | 95 | 1007.8 |
| 20260903110041 | 59 | 215 | 0.0 | 0.0 | 0.08 | 0.27 | 0.23 | 95 | 1007.9 |
| 20260903104553 | 59 | 203 | 0.0 | 0.0 | 0.09 | 0.26 | 0.22 | 95 | 1008.2 |
| 20260903103036 | 59 | 199 | 0.0 | 0.0 | 0.09 | 0.24 | 0.20 | 95 | 1008.2 |
| 20260903101530 | 59 | 191 | 0.0 | 0.0 | 0.08 | 0.22 | 0.18 | 95 | 1008.3 |
| 20260903100035 | 59 | 197 | 0.0 | 0.0 | 0.05 | 0.19 | 0.15 | 95 | 1008.4 |
| 20260903094544 | 59 | 181 | 0.0 | 0.0 | 0.04 | 0.18 | 0.13 | 95 | 1008.5 |
| 20260903093025 | 59 | 182 | 1.0 | 5.0 | 0.03 | 0.16 | 0.11 | 95 | 1008.7 |
| 20260903091528 | 59 | 158 | 0.0 | 0.0 | 0.04 | 0.15 | 0.10 | 95 | 1008.9 |
| 20260903090020 | 59 | 177 | 0.0 | 0.0 | 0.05 | 0.15 | 0.10 | 95 | 1009.1 |
| 20260903084518 | 59 | 172 | 0.0 | 0.0 | 0.05 | 0.14 | 0.09 | 94 | 1009.1 |
| 20260903083018 | 59 | 189 | 0.0 | 1.0 | 0.04 | 0.13 | 0.08 | 94 | 1009.2 |
| 20260903081517 | 59 | 149 | 0.0 | 0.0 | 0.04 | 0.11 | 0.06 | 94 | 1009.3 |
| 20260903080016 | 59 | 180 | 0.0 | 1.0 | 0.05 | 0.10 | 0.05 | 94 | 1009.3 |
| 20260903074511 | 59 | 178 | 0.0 | 0.0 | 0.05 | 0.09 | 0.04 | 94 | 1009.4 |
| 20260903073013 | 58 | 158 | 0.0 | 0.0 | 0.05 | 0.09 | 0.04 | 93 | 1009.5 |
| 20260903071509 | 58 | 178 | 0.0 | 0.0 | 0.04 | 0.07 | 0.02 | 93 | 1009.5 |
| 20260903070006 | 59 | 163 | 0.0 | 0.0 | 0.03 | 0.05 | 0.00 | 92 | 1009.6 |
| 20260903064505 | 59 | 198 | 0.0 | 0.0 | 0.02 | 0.04 | 0.04 | 92 | 1009.6 |
| 20260903063009 | 58 | 163 | 0.0 | 0.0 | 0.03 | 0.04 | 0.04 | 92 | 1009.7 |
| 20260903061507 | 58 | 113 | 0.0 | 0.0 | 0.02 | 0.03 | 0.03 | 91 | 1009.8 |
| 20260903060003 | 59 | 163 | 0.0 | 0.0 | 0.01 | 0.02 | 0.02 | 90 | 1010.0 |
| 20260903054503 | 59 | 178 | 0.0 | 0.0 | 0.01 | 0.03 | 0.02 | 88 | 1010.3 |
| 20260903053002 | 60 | 196 | 0.0 | 0.0 | 0.00 | 0.02 | 0.01 | 86 | 1010.4 |
| 20260903051502 | 61 | 188 | 0.0 | 1.0 | 0.00 | 0.02 | 0.01 | 82 | 1010.4 |
| 20260903050001 | 61 | 186 | 0.0 | 0.0 | 0.00 | 0.02 | 0.01 | 81 | 1010.4 |
| 20260903044602 | 61 | 180 | 0.0 | 0.0 | 0.00 | 0.02 | 0.01 | 81 | 1010.4 |
| 20260903043207 | 61 | 204 | 0.0 | 0.0 | 0.00 | 0.02 | 0.01 | 81 | 1010.3 |
| 20260903041606 | 61 | 202 | 0.0 | 0.0 | 0.00 | 0.02 | 0.01 | 83 | 1010.3 |
| 20260903034558 | 61 | 206 | 0.0 | 0.0 | 0.00 | 0.02 | 0.01 | 82 | 1010.1 |
| 20260903033059 | 62 | 204 | 0.0 | 0.0 | 0.00 | 0.02 | 0.01 | 82 | 1010.0 |
| 20260903031559 | 62 | 223 | 0.0 | 0.0 | 0.00 | 0.02 | 0.01 | 81 | 1010.0 |
| 20260903030057 | 62 | 195 | 0.0 | 0.0 | 0.00 | 0.02 | 0.01 | 81 | 1010.0 |
| 20260903024559 | 62 | 213 | 0.0 | 0.0 | 0.00 | 0.02 | 0.01 | 80 | 1010.1 |
| 20260903023056 | 62 | 259 | 0.0 | 1.0 | 0.00 | 0.02 | 0.01 | 79 | 1010.2 |
| 20260903021556 | 63 | 193 | 0.0 | 0.0 | 0.00 | 0.02 | 0.01 | 78 | 1010.2 |
| 20260903020054 | 63 | 215 | 0.0 | 0.0 | 0.00 | 0.02 | 0.01 | 77 | 1010.3 |
| 20260903014555 | 64 | 213 | 0.0 | 0.0 | 0.00 | 0.02 | 0.01 | 75 | 1010.4 |
| 20260903013105 | 64 | 214 | 0.0 | 0.0 | 0.00 | 0.02 | 0.01 | 73 | 1010.4 |
| 20260903011552 | 64 | 190 | 0.0 | 0.0 | 0.00 | 0.02 | 0.01 | 73 | 1010.3 |
| 20260903010053 | 65 | 200 | 0.0 | 0.0 | 0.00 | 0.02 | 0.01 | 72 | 1010.5 |
| 20260903004553 | 65 | 210 | 0.0 | 0.0 | 0.00 | 0.02 | 0.01 | 70 | 1010.6 |
| 20260903003055 | 66 | 196 | 0.0 | 0.0 | 0.00 | 0.02 | 0.01 | 69 | 1010.5 |
| 20260903001551 | 66 | 233 | 0.0 | 0.0 | 0.00 | 0.02 | 0.01 | 69 | 1010.4 |
| 20260903000050 | 66 | 215 | 0.0 | 0.0 | 0.00 | 0.02 | 0.01 | 68 | 1010.4 |
| 20260902234607 | 66 | 209 | 0.0 | 0.0 | 0.00 | 0.02 | 0.01 | 66 | 1010.5 |
| 20260902233049 | 68 | 202 | 0.0 | 0.0 | 0.00 | 0.02 | 0.01 | 63 | 1010.6 |
| 20260902231552 | 69 | 220 | 0.0 | 0.0 | 0.00 | 0.02 | 0.01 | 61 | 1010.6 |
| 20260902230048 | 70 | 238 | 0.0 | 0.0 | 0.00 | 0.02 | 0.01 | 63 | 1010.7 |
| 20260902224605 | 70 | 223 | 0.0 | 0.0 | 0.00 | 0.02 | 0.01 | 62 | 1010.8 |
| 20260902223143 | 70 | 224 | 0.0 | 0.0 | 0.00 | 0.02 | 0.01 | 61 | 1010.8 |
| 20260902221542 | 70 | 188 | 0.0 | 0.0 | 0.00 | 0.02 | 0.01 | 66 | 1011.1 |
| 20260902220046 | 70 | 215 | 0.0 | 0.0 | 0.00 | 0.02 | 0.01 | 67 | 1011.2 |
| 20260902214540 | 70 | 170 | 0.0 | 0.0 | 0.00 | 0.02 | 0.01 | 67 | 1011.3 |
| 20260902213040 | 70 | 219 | 0.0 | 0.0 | 0.00 | 0.02 | 0.01 | 67 | 1011.3 |
| 20260902211540 | 70 | 218 | 0.0 | 0.0 | 0.00 | 0.02 | 0.01 | 66 | 1011.2 |
| 20260902210037 | 69 | 213 | 0.0 | 0.0 | 0.00 | 0.02 | 0.01 | 68 | 1011.2 |
| 20260902204540 | 69 | 223 | 0.0 | 0.0 | 0.00 | 0.02 | 0.01 | 69 | 1011.2 |
| 20260902203037 | 69 | 186 | 0.0 | 0.0 | 0.00 | 0.02 | 0.01 | 70 | 1011.3 |
| 20260902201547 | 69 | 220 | 0.0 | 0.0 | 0.00 | 0.02 | 0.01 | 70 | 1011.3 |
| 20260902200050 | 69 | 246 | 0.0 | 0.0 | 0.00 | 0.02 | 0.01 | 72 | 1011.3 |
| 20260902194535 | 69 | 209 | 0.0 | 0.0 | 0.00 | 0.02 | 0.01 | 72 | 1011.4 |
| 20260902193035 | 69 | 250 | 0.0 | 0.0 | 0.00 | 0.02 | 0.01 | 71 | 1011.4 |
| 20260902191535 | 71 | 256 | 0.0 | 0.0 | 0.00 | 0.02 | 0.01 | 70 | 1011.4 |
| 20260902190045 | 67 | 200 | 0.0 | 0.0 | 0.00 | 0.02 | 0.01 | 76 | 1011.6 |
| 20260902184531 | 66 | 245 | 0.0 | 0.0 | 0.00 | 0.05 | 0.01 | 75 | 1011.7 |
| 20260902183023 | 65 | 248 | 0.0 | 0.0 | 0.00 | 0.05 | 0.01 | 79 | 1011.7 |
| 20260902181520 | 65 | 209 | 0.0 | 2.0 | 0.00 | 0.05 | 0.01 | 82 | 1011.7 |
| 20260902180018 | 65 | 238 | 0.0 | 0.0 | 0.00 | 0.05 | 0.01 | 83 | 1011.7 |
| 20260902174517 | 65 | 131 | 0.0 | 0.0 | 0.00 | 0.09 | 0.01 | 86 | 1011.6 |
| 20260902173012 | 62 | 221 | 0.0 | 0.0 | 0.00 | 0.09 | 0.01 | 91 | 1011.6 |
| 20260902171509 | 62 | 197 | 0.0 | 5.0 | 0.00 | 0.09 | 0.01 | 93 | 1011.2 |
| 20260902170008 | 60 | 231 | 0.0 | 0.0 | 0.00 | 0.09 | 0.01 | 93 | 1011.2 |
| 20260902164511 | 60 | 169 | 0.0 | 0.0 | 0.00 | 0.10 | 0.01 | 94 | 1011.2 |
| 20260902163005 | 60 | 189 | 0.0 | 0.0 | 0.00 | 0.10 | 0.01 | 95 | 1011.2 |
| 20260902161507 | 60 | 206 | 0.0 | 0.0 | 0.00 | 0.10 | 0.01 | 95 | 1011.1 |
| 20260902160001 | 60 | 180 | 0.0 | 0.0 | 0.00 | 0.10 | 0.01 | 95 | 1011.0 |
| 20260902154603 | 59 | 180 | 0.0 | 0.0 | 0.00 | 0.16 | 0.01 | 95 | 1010.8 |
| 20260902153057 | 59 | 180 | 0.0 | 0.0 | 0.00 | 0.16 | 0.01 | 95 | 1010.6 |
| 20260902151557 | 59 | 180 | 0.0 | 0.0 | 0.00 | 0.16 | 0.01 | 95 | 1010.5 |
| 20260902150053 | 58 | 176 | 0.0 | 0.0 | 0.00 | 0.16 | 0.01 | 95 | 1010.3 |
| 20260902144551 | 58 | 192 | 0.0 | 3.0 | 0.00 | 0.21 | 0.01 | 95 | 1010.3 |
| 20260902143050 | 57 | 167 | 0.0 | 0.0 | 0.00 | 0.21 | 0.01 | 94 | 1010.3 |
| 20260902141649 | 57 | 179 | 0.0 | 0.0 | 0.00 | 0.21 | 0.01 | 94 | 1010.2 |
| 20260902140049 | 58 | 212 | 0.0 | 0.0 | 0.00 | 0.21 | 0.01 | 94 | 1010.2 |
| 20260902134547 | 58 | 188 | 0.0 | 0.0 | 0.00 | 0.21 | 0.01 | 94 | 1010.0 |
| 20260902133047 | 58 | 188 | 0.0 | 0.0 | 0.00 | 0.21 | 0.01 | 93 | 1009.8 |
| 20260902131545 | 58 | 198 | 0.0 | 0.0 | 0.00 | 0.21 | 0.01 | 93 | 1009.6 |
| 20260902130044 | 58 | 215 | 0.0 | 0.0 | 0.00 | 0.21 | 0.01 | 92 | 1009.4 |